www.pogodaiklimat.ru

Погода и климат >> Архив погоды >> Индия >> Indore


ПОГОДА в Indore

  • Прогноз погоды в Indore
  • Монитор погоды в Indore
  • Климат города

АРХИВ ПОГОДЫ в Indore

Время (UTC), дата Ветер
(напр.,м/с)
 
Видим.   Явления Облачность Т
(С)
Тd
(С)
f
(%)
Тe
(С)
Тes
(С)
Комфортность P
(гПа)
Po
(гПа)
Тmin
(С)
Tmax
(С)
R
(мм)
R24
(мм)
S
(см)
12 8.08 З 3 2000 м мгла {дождь} 8/5 300 м
[Frnb Ac trans]
+24.0 +22.6 92 +31 +32 очень
душно
1000.0 937.6 +24.5 1
15 8.08 З 3 2000 м мгла 8/5 300 м
[Frnb Ac trans]
+23.8 +22.7 94 +31 +31 очень
душно
1001.7 939.1 1
18 8.08 З 3 4000 м мгла 8/5 300 м
[Frnb Ac trans]
+23.0 +21.8 93 +31 +31 очень
душно
1002.4 939.6 1
21 8.08 З 4 4000 м мгла 8/5 300 м
[Frnb Ac trans]
+22.6 +21.7 95 +30 +30 очень
душно
1001.7 939.0 1
00 9.08 З 4 4000 м мгла 8/5 300 м
[St Ac trans]
+22.2 +21.6 96 +29 +29 очень
душно
1001.7 939.0 1
03 9.08 З 3 2000 м мгла 8/5 300 м
[St Ac trans]
+24.2 +22.8 92 +32 +34 очень
душно
1003.3 940.8 +22.0 1
06 9.08 З 3 4000 м мгла 8/5 300 м
[St Ac trans]
+25.6 +23.6 89 +35 +40 очень
душно
1003.7 941.5
09 9.08 З 2 4000 м мгла {морось} 9/5 300 м
[St Ac trans]
+26.8 +23.7 83 +37 +41 очень
душно
1002.2 940.3 0.0
12 9.08 З 5 4000 м мгла 6/4 600 м
[Sc Ac trans]
+28.2 +23.1 74 +38 +38 очень
душно
1001.2 939.7 +29.2 0.0
15 9.08 З 3 4000 м мгла 3/0
[Ac trans]
+25.4 +22.8 86 +34 +34 очень
душно
1003.3 941.1 0.0
18 9.08 З 3 4000 м мгла 4/1 600 м
[Sc Ac trans]
+24.2 +22.8 92 +32 +32 очень
душно
1004.9 942.4 0.0
21 9.08 З 3 4000 м мгла 4/3 600 м
[Sc Ac trans]
+23.2 +22.3 95 +32 +32 очень
душно
1003.7 941.0 0.0
00 10.08 З 4 4000 м мгла 6/4 600 м
[Sc Ac trans]
+22.8 +21.6 93 +30 +30 очень
душно
1004.2 941.3 0.0
03 10.08 З 3 1000 м слабая морось 10/6 300 м
[Frnb Ac trans]
+23.4 +22.8 96 +33 +33 очень
душно
1005.6 942.9 +22.3 0.3
06 10.08 З 4 4000 м мгла 9/6 300 м
[St Ac trans]
+25.4 +23.1 87 +34 +37 очень
душно
1005.7 943.3 0.0
09 10.08 З 3 4000 м мгла 9/5 600 м
[Sc Ac trans]
+26.6 +22.9 80 +35 +39 очень
душно
1003.9 941.9 0.0
12 10.08 З 5 2000 м слабый дождь 10/6 300 м
[Frnb Ac trans]
+24.0 +23.4 96 +32 +32 очень
душно
1003.4 940.8 +26.8 1
15 10.08 З 2 2000 м мгла {дождь} 9/6 300 м
[Frnb Ac trans]
+24.0 +23.1 95 +32 +32 очень
душно
1004.1 941.4 16
18 10.08 З 3 4000 м мгла 9/6 300 м
[Frnb Ac trans]
+24.4 +23.3 94 +33 +33 очень
душно
1004.6 942.1 16
21 10.08 З 3 4000 м мгла 9/6 300 м
[Frnb Ac trans]
+24.2 +23.1 94 +32 +32 очень
душно
1003.2 940.8 16
00 11.08 З 4 4000 м мгла 9/6 300 м
[Frnb Ac trans]
+24.0 +22.6 92 +31 +31 очень
душно
1003.1 940.5 16
03 11.08 З 5 4000 м мгла 9/5 300 м
[St Ac trans]
+23.8 +22.1 90 +31 +32 очень
душно
1004.4 941.7 +22.7 16
06 11.08 З 7 4000 м мгла 8/5 600 м
[Sc Ac trans]
+26.6 +22.0 76 +34 +36 очень
душно
1003.5 941.5
09 11.08 З 5 4000 м 6/5 600 м
[Sc Ac trans]
+29.2 +23.0 69 +39 +43 очень
душно
1000.6 939.3
12 11.08 З 5 4000 м 4/4 600 м
[Sc]
+29.4 +22.3 66 +38 +39 очень
душно
999.0 937.8 +30.0
15 11.08 З 2 4000 м 4/0
[Ci fib]
+25.6 +22.4 83 +34 +34 очень
душно
1001.3 939.2
18 11.08 З 4 4000 м 4/0
[Ac trans Ci fib]
+24.2 +22.8 92 +32 +32 очень
душно
1002.0 939.6
21 11.08 З 3 4000 м мгла 4/0
[Ac trans Ci fib]
+24.0 +22.6 92 +31 +31 очень
душно
1001.0 938.6
00 12.08 З 5 4000 м мгла 8/5 300 м
[St Ac trans]
+23.4 +22.5 95 +32 +32 очень
душно
1000.2 937.8
03 12.08 З 5 4000 м мгла 6/5 300 м
[Frnb Ac trans]
+24.2 +22.5 90 +32 +33 очень
душно
1000.8 938.6 +22.5
06 12.08 З 5 4000 м мгла 8/6 360 м
[Frnb Ac trans]
+27.4 +22.5 75 +36 +39 очень
душно
999.9 938.3
09 12.08 З 5 4000 м 8/5 600 м
[Sc Ac trans]
+27.2 +21.7 72 +35 +38 очень
душно
998.0 936.6
12 12.08 З 5 4000 м 8/5 600 м
[Sc Ac trans]
+27.2 +22.6 76 +36 +36 очень
душно
996.7 935.3 +27.9
15 12.08 З 3 4000 м мгла 8/6 600 м
[Sc Ac trans]
+24.2 +22.8 92 +32 +32 очень
душно
999.1 937.0
18 12.08 ЮЗ 4 4000 м мгла 8/4 600 м
[Sc Ac trans]
+23.4 +22.0 92 +32 +32 очень
душно
999.7 937.3
21 12.08 ЮЗ 4 4000 м мгла 8/4 600 м
[Sc Ac trans]
+23.2 +21.7 91 +31 +31 очень
душно
998.3 936.0
00 13.08 З 2 4000 м мгла 8/5 300 м
[St Ac trans]
+23.2 +22.0 93 +32 +32 очень
душно
998.3 936.0
03 13.08 З 3 2000 м слабая морось 9/4 360 м
[Frnb Ac trans]
+23.4 +22.5 95 +32 +34 очень
душно
1000.3 937.9 +22.6 0.0
06 13.08 З 3 2000 м слабая морось 9/6 360 м
[Frnb Ac trans]
+24.4 +23.0 92 +32 +36 очень
душно
1001.0 938.8 0.0
09 13.08 З 3 4000 м {дождь, морось} 6/4 600 м
[Sc Ac trans]
+27.4 +23.5 79 +37 +44 очень
душно
998.4 937.0 1
12 13.08 З 4 4000 м мгла 6/4 750 м
[Cu Sc Ac trans]
+28.4 +23.0 73 +38 +39 очень
душно
997.4 936.2 +28.9 1
15 13.08 З 3 4000 м мгла 4/3 600 м
[Sc Ac trans]
+25.0 +22.1 84 +32 +32 очень
душно
999.9 937.7 1
18 13.08 З 3 4000 м мгла 4/3 600 м
[Sc Ac trans]
+24.0 +22.3 90 +31 +31 очень
душно
1000.6 938.4 1
21 13.08 З 3 4000 м мгла 4/3 600 м
[Sc Ac trans]
+23.8 +21.8 89 +31 +31 очень
душно
999.3 937.0 1
00 14.08 З 3 4000 м мгла 6/6 300 м
[Frnb Ac trans]
+23.4 +22.2 93 +32 +32 очень
душно
1000.7 938.1 1
03 14.08 З 4 2000 м мгла 9/4 300 м
[St Ac trans]
+24.2 +22.5 90 +32 +33 очень
душно
1001.7 939.3 +22.6 1
06 14.08 З 5 4000 м мгла 8/4 600 м
[Sc Ac trans]
+26.6 +23.6 84 +36 +40 очень
душно
1001.6 939.7
09 14.08 З 4 4000 м мгла 8/4 750 м
[Cu hum Ac trans]
+28.8 +23.1 71 +39 +42 очень
душно
999.1 937.7
12 14.08 З 4 4000 м мгла 8/5 600 м
[Sc Ac trans]
+28.4 +22.7 71 +38 +38 очень
душно
997.5 936.3 +30.4
15 14.08 З 2 4000 м мгла 4/0
[Ci fib]
+25.0 +22.4 86 +33 +33 очень
душно
1000.2 938.0
18 14.08 З 3 4000 м мгла 6/3 750 м
[Sc Ac trans]
+23.8 +22.4 92 +31 +31 очень
душно
1001.8 939.3
21 14.08 З 3 4000 м мгла 6/3 600 м
[Sc Ac trans]
+23.0 +22.4 96 +31 +31 очень
душно
1000.9 938.5
00 15.08 З 3 4000 м мгла 8/4 600 м
[Sc Ac trans]
+23.4 +22.8 96 +33 +33 очень
душно
1000.8 938.4
03 15.08 З 4 2000 м мгла 8/5 300 м
[St Ac trans]
+24.8 +23.1 90 +33 +34 очень
душно
1001.5 939.1 +22.8
06 15.08 З 3 2000 м мгла 8/5 300 м
[St Ac trans]
+27.6 +23.4 78 +37 +43 очень
душно
1001.3 939.6

 

Местоположение метеостанции Indore (Madhya Pradesh, Индия): широта 22.72 долгота 75.80 высота над уровнем моря 567 м.

В архиве по умолчанию представлена погода в Indore за последнюю неделю. Архивные данные за месяц целиком и за предыдущие месяцы, начиная с января 2011 года, Вы можете получить, выбрав интересующий диапазон дат из раскрывающегося списка и нажав кнопку "Ввод!".


*Определитесь, кто Вы:
робот инопланетянин человек

Внимание! Время в таблицах - всемирное. Для получения местного времени необходимо прибавить поправку, которая в Indore равна 5.5 ч.

Смотрите также архив погоды в соседних городах и на ближайших метеорологических станциях:

Погода в Ujjain (Madhya Pradesh, Индия) (51 км)
Погода в Dhar (Madhya Pradesh, Индия) (53 км)
Погода в Shajapur (Madhya Pradesh, Индия) (95 км)
Погода в Ratlam (Madhya Pradesh, Индия) (102 км)
Погода в Khargone (Madhya Pradesh, Индия) (102 км)
Погода в Khandwa (Madhya Pradesh, Индия) (115 км)
Погода в Bhopal (Madhya Pradesh, Индия) (170 км)
Погода в Rajgarh (Madhya Pradesh, Индия) (171 км)
Погода в Jalgaon (Maharashtra, Индия) (187 км)
Погода в Hoshangabad (Madhya Pradesh, Индия) (202 км)

Пояснения к столбцам:

Ветер - указаны скорость ветра в м/с - средняя за 10 мин, порывы в срок и между сроками (в фигурных скобках) и направление, откуда дует ветер: С - северный, СВ - северо-восточный, В - восточный, ЮВ - юго-восточный, Ю - южный, ЮЗ - юго-западный, З - западный, СЗ - северо-западный.
Видимость - горизонтальная дальность видимости в метрах или километрах. При видимости от 1 до 10 км при отсутствии осадков обычно наблюдается дымка, при ухудшении видимости до 1 км и менее - туман. В сухую погоду видимость может ухудшаться дымом, пылью или мглою.
Явления - указаны атмосферные явления, наблюдавшиеся в срок или в последний час перед сроком; фигурными скобками обозначены явления, наблюдавшиеся между сроками (за 1-3 часа до срока); квадратными скобками обозначены град или гололедные отложения с указанием их диаметра в мм.
Облачность - указаны через наклонную черту общая и нижняя облачность в баллах и высота нижней границы облаков в метрах; квадратными скобками обозначены формы облаков: Ci - перистые, Cs - перисто-слоистые, Cc - перисто-кучевые, Ac - высококучевые, As - высокослоистые, Sc - слоисто-кучевые, Ns - слоисто-дождевые, Cu - кучевые, Cb - кучево-дождевые. Подробнее классификацию облаков см. в Атласе облаков (PDF).
T - Температура воздуха - температура, измеренная на высоте 2 м над землей.
Td - Температура точки росы - температура, при понижении до которой содержащийся в воздухе водяной пар достигнет насыщения.
f - Относительная влажность воздуха - влажноcть воздуха, измеренная на высоте 2 м над землей.
Te - Эффективная температура - температура, которую ощущает одетый по сезону человек в тени. Характеристика душности погоды. При расчете учитывается влияние влажности воздуха и скорости ветра на теплоощущения человека.
Tes - Эффективная температура на солнце - температура, которую ощущает человек, с поправкой на солнечный нагрев. Характеристика знойности погоды. Зависит от высоты солнца над горизонтом, облачности и скорости ветра. Ночью, в пасмурную погоду, а также при ветре 12 м/с и более поправка равна нулю.
P - Атмосферное давление - приведенное к уровню моря атмосферное давление.
Po - Атмосферное давление - измеренное на уровне метеостанции атмосферное давление.
Tmin - Минимальная температура - минимум температуры воздуха на высоте 2 м над землей.
Tmax - Максимальная температура - максимум температуры воздуха на высоте 2 м над землей.
R - Количество осадков - Количество выпавших осадков за период времени, мм. При наведении курсора мыши на число - период времени, за который выпало указанное количество осадков.
R24 - Количество осадков - Количество выпавших осадков за 24 часа, мм.
S - Снежный покров - Высота снежного покрова, см. При наведении курсора мыши на число - состояние снежного покрова и степень покрытия местности в баллах.